Florala, AL

9:24 PM CDT on May 23, 2017 (GMT -0500)
Florala

Weather History for K0J4 - May, 2013

Change the Weather History Date:

Saturday, May 4, 2013

  Actual Average (KCEW) Record (KCEW)
Temperature  
Mean Temperature 57 °F -  
Max Temperature 66 °F 82 °F 93 °F (1952)
Min Temperature 46 °F 56 °F 39 °F (2004)
Degree Days  
Heating Degree Days 8    
Growing Degree Days 7 (Base 50)    
Moisture  
Dew Point 46 °F    
Average Humidity 81    
Maximum Humidity 96    
Minimum Humidity 33    
Precipitation  
Precipitation 0.44 in - - ()
Sea Level Pressure  
Sea Level Pressure 29.90 in    
Wind  
Wind Speed 6 mph (NNW)    
Max Wind Speed 15 mph    
Max Gust Speed 22 mph    
Visibility 7 miles    
Events Rain    
Averages and records for this station are not official NWS values.
T = Trace of Precipitation, MM = Missing Value Source: NWS Daily Summary

Daily Weather History Graph

Daily Weather History Graph

Search for Another Location

Airport or City:

Trip Planner

Search our weather history database for the weather conditions in past years. The results will help you decide how hot, cold, wet, or windy it might be!

Date:

Astronomy

May. 04, 2013 Rise Set
Actual Time 5:57 AM CDT 7:26 PM CDT
Civil Twilight 5:32 AM CDT 7:52 PM CDT
Nautical Twilight 5:01 AM CDT 8:23 PM CDT
Astronomical Twilight 4:28 AM CDT 8:55 PM CDT
Moon 2:35 AM CDT (5/4) 2:42 PM CDT (5/4)
Length of Visible Light 14h 20m
Length of Day
13h 28m
Waning Crescent, 27% of the Moon is Illuminated
May 4
Waning Crescent
May 9
New
May 17
First Quarter
May 24
Full
May 31
Last Quarter

Hourly Weather History & Observations

Time (CDT) Temp. Dew Point Humidity Pressure Visibility Wind Dir Wind Speed Gust Speed Precip Events Conditions
12:27 AM 64.4 °F 62.6 °F 94% 29.86 in 10.0 mi Calm Calm - N/A   Overcast
12:42 AM 62.6 °F 60.8 °F 94% 29.88 in 10.0 mi NW 8.1 mph - N/A   Overcast
12:58 AM 57.0 °F 55.0 °F 93% 29.88 in 1.8 mi NNW 9.2 mph 16.1 mph 0.09 in   Overcast
1:07 AM 53.6 °F 51.8 °F 94% 29.89 in 2.0 mi NNW 9.2 mph 19.6 mph 0.04 in   Overcast
1:14 AM 53.6 °F 51.8 °F 94% 29.89 in 4.0 mi NNW 8.1 mph 18.4 mph 0.05 in   Overcast
1:20 AM 53.6 °F 51.8 °F 94% 29.89 in 3.0 mi NW 8.1 mph - 0.07 in   Overcast
1:39 AM 51.8 °F 50.0 °F 94% 29.89 in 5.0 mi Variable 6.9 mph - 0.08 in   Overcast
1:44 AM 51.8 °F 50.0 °F 94% 29.89 in 4.0 mi NNW 8.1 mph - 0.09 in   Overcast
1:58 AM 51.1 °F 50.0 °F 96% 29.88 in 3.0 mi NNW 8.1 mph - 0.12 in   Overcast
2:53 AM 50.0 °F 48.2 °F 94% 29.87 in 3.0 mi Variable 4.6 mph - 0.08 in   Overcast
2:58 AM 50.0 °F 48.0 °F 93% 29.87 in 2.5 mi NNW 5.8 mph - 0.10 in   Overcast
3:05 AM 50.0 °F 48.2 °F 94% 29.88 in 2.5 mi Variable 6.9 mph - 0.02 in   Overcast
3:09 AM 50.0 °F 48.2 °F 94% 29.87 in 4.0 mi Variable 6.9 mph - 0.02 in Rain Light Rain
3:24 AM 50.0 °F 48.2 °F 94% 29.88 in 4.0 mi Variable 5.8 mph - 0.03 in   Overcast
3:29 AM 50.0 °F 46.4 °F 87% 29.87 in 5.0 mi NNW 8.1 mph - 0.03 in Rain Light Rain
3:53 AM 48.2 °F 46.4 °F 93% 29.86 in 5.0 mi North 6.9 mph - 0.06 in Rain Light Rain
3:58 AM 48.9 °F 46.9 °F 93% 29.86 in 6.0 mi Variable 6.9 mph - 0.06 in Rain Light Rain
4:20 AM 48.2 °F 46.4 °F 93% 29.87 in 10.0 mi NNW 8.1 mph - 0.00 in   Overcast
4:58 AM 48.0 °F 46.0 °F 93% 29.87 in 8.0 mi NNW 9.2 mph - 0.00 in   Overcast
5:43 AM 48.2 °F 46.4 °F 93% 29.88 in 7.0 mi Variable 4.6 mph - 0.01 in   Overcast
5:58 AM 48.0 °F 46.0 °F 93% 29.88 in 10.0 mi Variable 5.8 mph - 0.01 in   Overcast
6:14 AM 48.2 °F 46.4 °F 93% 29.89 in 10.0 mi Variable 5.8 mph - N/A   Overcast
6:58 AM 48.0 °F 46.0 °F 93% 29.90 in 7.0 mi NNW 8.1 mph - 0.01 in Rain Light Rain
7:58 AM 48.0 °F 46.0 °F 93% 29.91 in 4.0 mi North 5.8 mph - 0.00 in   Overcast
8:13 AM 48.2 °F 46.4 °F 93% 29.91 in 2.5 mi Variable 6.9 mph - 0.01 in Rain Light Rain
8:22 AM 48.2 °F 46.4 °F 93% 29.91 in 3.0 mi Variable 6.9 mph - 0.01 in Rain Light Rain
8:41 AM 48.2 °F 46.4 °F 93% 29.92 in 2.5 mi North 6.9 mph - 0.01 in   Overcast
8:58 AM 48.9 °F 46.0 °F 90% 29.91 in 2.5 mi Variable 6.9 mph - 0.02 in Rain Light Rain
9:10 AM 48.2 °F 46.4 °F 93% 29.92 in 2.5 mi Variable 5.8 mph - 0.00 in   Overcast
9:16 AM 48.2 °F 46.4 °F 93% 29.92 in 1.5 mi North 5.8 mph - 0.01 in Rain Light Rain
9:32 AM 50.0 °F 46.4 °F 87% 29.93 in 3.0 mi Variable 4.6 mph - 0.03 in Rain Light Rain
9:43 AM 50.0 °F 46.4 °F 87% 29.93 in 10.0 mi NNW 9.2 mph 19.6 mph 0.03 in   Overcast
9:48 AM 50.0 °F 46.4 °F 87% 29.93 in 9.0 mi Variable 5.8 mph 19.6 mph 0.03 in   Overcast
9:58 AM 50.0 °F 48.0 °F 93% 29.93 in 10.0 mi North 5.8 mph - 0.03 in   Overcast
10:16 AM 51.8 °F 46.4 °F 82% 29.94 in 10.0 mi North 11.5 mph 18.4 mph N/A   Overcast
10:24 AM 51.8 °F 46.4 °F 82% 29.94 in 10.0 mi North 10.4 mph 21.9 mph N/A   Overcast
10:58 AM 55.9 °F 45.0 °F 67% 29.93 in 10.0 mi North 15.0 mph 19.6 mph N/A   Scattered Clouds
11:58 AM 60.1 °F 43.0 °F 53% 29.92 in 10.0 mi North 10.4 mph 18.4 mph N/A   Clear
12:58 PM 64.0 °F 39.9 °F 41% 29.90 in 10.0 mi NNW 8.1 mph 20.7 mph N/A   Clear
1:58 PM 64.9 °F 37.9 °F 37% 29.90 in 10.0 mi NW 11.5 mph 19.6 mph N/A   Clear
2:58 PM 66.0 °F 37.0 °F 34% 29.88 in 10.0 mi NW 8.1 mph 19.6 mph N/A   Clear
3:58 PM 66.9 °F 37.0 °F 33% 29.88 in 10.0 mi WNW 10.4 mph 16.1 mph N/A   Clear
4:58 PM 66.0 °F 37.0 °F 34% 29.88 in 10.0 mi Variable 5.8 mph 19.6 mph N/A   Clear
5:58 PM 64.9 °F 37.9 °F 37% 29.87 in 10.0 mi Variable 4.6 mph - N/A   Clear
6:58 PM 61.0 °F 37.9 °F 42% 29.89 in 10.0 mi Variable 3.5 mph - N/A   Clear
7:58 PM 57.0 °F 37.9 °F 49% 29.90 in 10.0 mi Calm Calm - N/A   Clear
8:58 PM 51.1 °F 43.0 °F 74% 29.92 in 10.0 mi Calm Calm - N/A   Clear
9:58 PM 51.1 °F 41.0 °F 68% 29.94 in 10.0 mi Calm Calm - N/A   Clear
10:58 PM 48.2 °F 42.8 °F 82% - 10.0 mi Calm Calm - N/A   Clear
11:58 PM 46.0 °F 43.0 °F 89% 29.92 in 10.0 mi Calm Calm - N/A   Clear